QPF
0.00 0.00 0.00 0.00 0.00 0.00 0.00 0.00 0.00 0.00 0.00 0.00 0.00 0.00 0.00 0.00 0.00 0.00 0.00 0.00 0.00 0.00
0.00 0.00 0.00 0.00 0.00 0.00 0.00 0.00 0.00 0.00 0.00 0.00 0.00 0.00 0.00 0.00 0.00 0.00 0.00 0.00 0.00 0.00
0.00 0.00 0.00 0.00 0.00 0.00 0.00 0.00 0.00 0.00 0.00 0.00 0.00 0.00 0.00 0.00 0.00 0.00 0.00 0.00 0.00 0.00
0.00 0.00 0.00 0.00 0.00 0.00 0.00 0.00 0.00 0.00 0.00 0.00 0.00 0.00 0.00 0.00 0.00 0.00 0.00 0.00 0.00 0.00
0.00 0.00 0.00 0.00 0.00 0.00 0.00 0.00 0.00 0.00 0.00 0.00 0.00 0.00 0.00 0.00 0.00 0.00 0.00 0.00 0.00 0.00
0.00 0.00 0.00 0.00 0.00 0.00 0.00 0.00 0.00 0.00 0.00 0.00 0.00 0.00 0.00 0.00 0.00 0.00 0.00 0.00 0.00 0.00
0.00 0.00 0.00 0.00 0.00 0.00 0.00 0.00 0.00 0.00 0.00 0.00 0.00 0.00 0.00 0.00 0.00 0.00 0.00 0.00 0.00 0.00
0.00 0.00 0.00 0.00 0.00 0.00 0.00 0.00 0.00 0.00 0.00 0.00 0.00 0.00 0.00 0.00 0.00 0.00 0.00 0.00 0.00 0.00
0.00 0.00 0.00 0.00 0.00 0.00 0.00 0.00 0.00 0.00 0.00 0.00 0.00 0.00 0.00 0.00 0.00 0.00 0.00 0.00 0.00 0.00
0.00 0.00 0.00 0.00 0.00 0.00 0.00 0.00 0.00 0.00 0.00 0.00 0.00 0.00 0.00 0.00 0.00 0.00 0.00 0.00 0.00 0.00
0.00 0.00 0.00 0.00 0.00 0.00 0.00 0.00 0.00 0.00 0.00 0.00 0.00 0.00 0.00 0.00 0.00 0.00 0.00 0.00 0.00 0.00
0.00 0.00 0.00 0.00 0.00 0.00 0.00 0.00 0.00 0.00 0.00 0.00 0.00 0.00 0.00 0.00 0.00 0.00 0.00 0.00 0.00 0.00
0.00 0.00 0.00 0.00 0.00 0.00 0.00 0.00 0.00 0.00 0.00 0.00 0.00 0.00 0.00 0.00 0.00 0.00 0.00 0.00 0.00 0.00
0.00 0.00 0.00 0.00 0.00 0.00 0.00 0.00 0.00 0.00 0.00 0.00 0.00 0.00 0.00 0.00 0.00 0.00 0.00 0.00 0.00 0.00
MSLP
1013.74 1014.59 1015.57 1016.26 1016.99 1017.67 1018.10 1018.64 1019.04 1019.42 1019.73 1019.93 1020.02 1020.12 1020.24 1020.36 1020.33 1020.37 1020.40 1020.39 1020.33 1020.32
1014.38 1015.18 1015.98 1016.66 1017.29 1017.84 1018.40 1018.86 1019.30 1019.59 1019.92 1020.09 1020.14 1020.15 1020.26 1020.35 1020.33 1020.38 1020.30 1020.21 1020.15 1020.20
1014.95 1015.72 1016.31 1016.96 1017.60 1018.22 1018.64 1019.08 1019.41 1019.75 1019.98 1020.12 1020.17 1020.25 1020.36 1020.32 1020.27 1020.27 1020.11 1019.91 1019.90 1019.82
1015.53 1016.09 1016.75 1017.42 1018.00 1018.41 1018.90 1019.21 1019.51 1019.83 1020.08 1020.22 1020.34 1020.35 1020.34 1020.23 1020.05 1019.99 1019.85 1019.63 1019.55 1019.35
1015.79 1016.54 1017.33 1017.94 1018.31 1018.69 1019.05 1019.36 1019.64 1019.91 1020.06 1020.24 1020.31 1020.29 1020.17 1020.02 1019.84 1019.81 1019.67 1019.39 1019.25 1019.00
1016.50 1017.20 1017.79 1018.23 1018.63 1018.92 1019.21 1019.53 1019.76 1020.01 1020.20 1020.29 1020.25 1020.04 1019.90 1019.83 1019.65 1019.50 1019.31 1019.13 1018.95 1018.64
1017.02 1017.53 1018.02 1018.49 1018.81 1019.08 1019.34 1019.61 1019.95 1020.16 1020.25 1020.24 1020.09 1019.96 1019.77 1019.45 1019.23 1019.12 1018.97 1018.79 1018.52 1018.17
1017.26 1017.79 1018.26 1018.64 1018.95 1019.19 1019.45 1019.85 1020.09 1020.21 1020.21 1020.16 1020.06 1019.79 1019.33 1019.03 1018.92 1018.84 1018.72 1018.42 1018.07 1017.62
1017.48 1018.00 1018.43 1018.76 1019.07 1019.36 1019.75 1020.04 1020.17 1020.19 1020.26 1020.27 1019.97 1019.58 1019.08 1018.71 1018.55 1018.49 1018.32 1018.02 1017.48 1017.04
1017.62 1018.18 1018.59 1018.91 1019.22 1019.63 1019.96 1020.12 1020.27 1020.39 1020.32 1020.10 1019.82 1019.32 1018.76 1018.32 1018.10 1018.07 1017.88 1017.50 1016.94 1016.36
1017.79 1018.30 1018.71 1019.07 1019.51 1019.83 1020.05 1020.25 1020.40 1020.29 1020.14 1019.98 1019.61 1019.04 1018.48 1018.04 1017.81 1017.66 1017.33 1016.82 1016.30 1015.84
1017.86 1018.43 1018.91 1019.43 1019.84 1020.08 1020.26 1020.33 1020.26 1020.16 1020.02 1019.85 1019.33 1018.80 1018.28 1017.75 1017.45 1017.17 1016.66 1016.12 1015.71 1015.26
1018.06 1018.62 1019.29 1019.71 1020.00 1020.19 1020.30 1020.29 1020.20 1020.06 1019.89 1019.57 1019.14 1018.69 1018.13 1017.49 1017.04 1016.61 1015.96 1015.43 1015.05 1014.68
1018.54 1019.07 1019.52 1019.87 1020.05 1020.26 1020.39 1020.43 1020.40 1020.12 1019.63 1019.27 1018.96 1018.47 1017.88 1017.21 1016.53 1016.08 1015.38 1015.01 1014.47 1014.08
Thickness
5601 5595 5587 5582 5576 5569 5565 5558 5553 5546 5539 5533 5528 5523 5517 5510 5505 5499 5492 5486 5480 5472
5589 5583 5577 5571 5566 5560 5554 5548 5542 5535 5528 5523 5518 5512 5505 5499 5493 5486 5480 5474 5467 5458
5578 5572 5568 5562 5556 5549 5544 5538 5532 5525 5519 5513 5507 5501 5494 5488 5482 5475 5468 5463 5455 5446
5567 5563 5557 5551 5546 5541 5534 5528 5522 5515 5508 5501 5494 5489 5482 5477 5472 5465 5458 5451 5443 5435
5559 5553 5546 5540 5536 5531 5524 5518 5512 5505 5498 5491 5484 5478 5473 5466 5460 5452 5445 5438 5430 5423
5546 5541 5535 5530 5525 5520 5514 5507 5501 5494 5486 5479 5473 5468 5462 5455 5448 5440 5433 5426 5418 5410
5536 5531 5525 5520 5515 5510 5504 5497 5490 5483 5476 5469 5463 5457 5451 5446 5438 5430 5422 5414 5405 5396
5527 5521 5516 5511 5505 5500 5494 5486 5479 5472 5465 5459 5453 5448 5442 5436 5428 5419 5410 5401 5391 5380
5518 5512 5506 5501 5495 5489 5482 5474 5468 5462 5454 5447 5441 5435 5431 5425 5416 5406 5397 5388 5377 5364
5509 5503 5497 5491 5485 5478 5470 5463 5456 5449 5442 5435 5429 5425 5420 5415 5406 5394 5383 5371 5360 5350
5499 5493 5488 5482 5474 5466 5459 5452 5445 5438 5432 5424 5419 5415 5410 5404 5393 5381 5368 5356 5342 5330
5491 5485 5478 5469 5461 5454 5448 5441 5435 5428 5421 5414 5408 5404 5398 5391 5380 5368 5357 5343 5326 5310
5482 5474 5465 5457 5451 5444 5437 5431 5425 5417 5410 5404 5398 5391 5385 5377 5366 5355 5345 5330 5310 5294
5469 5461 5454 5447 5441 5434 5426 5419 5411 5406 5400 5393 5385 5377 5370 5361 5351 5338 5329 5310 5295 5281